Dewpoint
72 70 71 72 71 74 70 68 58 60 59 55 53 53 53 58 58 58 58 59 58 60 61 60 58 58 60 58 56 61 62 56 60 54 55 65 70 69 70 71 72 72 72 73 75 75 75 76 75 76 76 76 76 76 75 76 78 78 77 77 77 77 77 77 77 77 77 77 77 77 77 77 77 76 76 76 76 76 76 76 75 75 74 73 74 75 75 75 74 74 74 74 74 74 73 74 74
71 70 72 72 73 72 65 67 59 57 55 52 51 53 53 57 58 55 55 57 57 59 61 60 61 61 61 61 61 59 60 63 64 63 66 68 68 69 70 71 71 71 72 73 74 72 73 75 76 76 76 76 74 73 74 77 78 78 77 77 77 77 77 77 77 77 77 77 77 77 77 76 76 76 76 76 76 75 75 76 75 75 74 74 74 75 75 74 74 74 74 74 73 74 74 74 74
71 71 72 72 72 70 67 67 54 53 52 47 48 51 56 54 53 55 57 57 60 61 61 60 61 61 60 60 58 59 57 65 64 65 66 69 67 69 70 72 72 73 73 73 73 72 72 74 76 76 76 76 75 76 77 77 78 77 77 77 77 77 77 77 77 77 77 77 77 77 76 76 76 76 76 76 75 75 75 75 75 75 75 74 74 74 74 73 74 73 73 74 73 74 74 74 74
72 72 70 71 67 68 63 59 56 54 51 49 50 51 55 52 54 56 57 59 60 60 60 58 58 62 59 58 61 62 62 61 64 65 66 67 67 69 70 71 73 72 72 74 73 72 72 75 76 76 76 75 76 76 77 77 77 77 77 77 77 77 77 77 77 77 77 77 77 77 77 76 76 76 76 76 75 75 75 75 75 75 75 74 73 73 74 73 73 74 74 73 74 75 75 74 74
72 72 71 71 66 62 60 57 54 55 49 50 47 50 53 54 55 57 58 60 60 60 59 60 60 63 62 61 62 60 61 64 65 66 66 67 69 69 70 72 72 71 72 73 73 72 72 76 77 76 75 76 77 77 77 77 78 78 77 77 77 77 77 77 77 77 77 77 77 77 76 77 76 76 76 76 75 75 75 75 75 75 75 74 74 74 74 74 74 74 75 74 74 74 75 74 75
71 71 72 72 65 64 61 55 56 54 52 52 51 50 52 55 57 58 59 60 60 60 60 60 59 60 61 63 64 61 64 62 65 66 66 68 69 69 71 72 71 71 72 73 73 72 72 77 77 76 76 76 77 77 77 78 78 78 77 77 77 77 77 77 77 77 77 77 77 77 77 76 76 76 76 76 75 74 74 75 75 75 75 76 75 75 74 75 75 75 74 74 75 75 74 75 74
69 70 70 70 67 65 55 54 53 53 52 54 52 51 53 55 58 58 58 59 60 60 61 60 61 61 59 63 64 65 66 66 65 66 67 69 69 70 70 70 71 71 72 73 73 73 73 77 76 76 76 76 77 77 77 78 78 77 77 77 77 77 78 77 77 77 77 77 77 77 77 76 76 76 76 75 75 74 75 75 76 76 76 76 76 75 75 75 75 75 75 75 74 74 75 75 74
71 68 67 62 59 59 54 53 53 54 52 54 54 53 54 56 58 57 58 57 58 58 60 61 60 61 61 63 61 68 68 67 67 68 69 69 70 70 70 70 70 71 72 73 74 74 76 77 76 76 76 76 77 77 77 77 77 77 77 77 77 77 77 77 77 77 77 77 77 76 76 76 76 76 76 75 75 74 74 75 75 75 75 76 76 75 75 75 76 76 75 75 76 75 75 74 74
70 67 67 63 57 57 54 53 51 55 54 55 54 55 57 57 58 57 57 58 58 59 59 60 60 57 61 63 64 67 68 68 69 70 70 69 70 70 70 70 70 70 71 72 73 74 74 76 76 76 76 76 77 77 77 77 78 77 77 77 77 77 77 77 77 77 77 77 77 77 76 76 76 76 75 75 75 75 74 75 75 75 76 75 76 76 76 76 76 75 75 75 75 75 75 75 75
68 68 62 59 58 54 53 50 50 50 51 53 54 54 56 58 57 58 57 57 58 59 60 61 60 60 61 61 63 66 67 69 69 69 70 70 70 70 70 70 70 70 71 71 73 73 74 76 76 76 76 77 77 77 77 77 77 77 77 77 77 77 77 77 77 77 77 77 77 77 77 76 76 76 76 75 75 74 75 75 75 75 75 75 75 75 75 75 75 75 75 75 75 75 75 75 75
64 66 65 58 54 52 49 46 49 50 51 51 53 55 57 58 58 57 57 58 59 59 61 61 60 61 60 62 66 69 69 69 68 68 69 69 70 70 69 70 70 71 71 71 72 73 75 74 75 76 76 77 77 77 77 77 77 77 77 77 77 77 77 77 77 77 77 77 77 77 76 76 76 76 76 75 75 75 75 75 75 76 76 76 75 75 75 75 75 75 75 76 76 76 76 75 75
62 62 62 55 54 52 50 50 50 50 51 51 50 55 57 57 58 57 58 57 59 59 59 60 60 61 60 61 64 68 69 68 67 68 69 70 69 69 70 70 70 70 71 70 72 73 74 75 74 75 76 76 77 77 77 77 77 77 77 77 77 77 77 77 77 76 76 77 76 77 76 76 76 76 76 75 75 75 76 75 75 75 76 76 75 75 75 75 75 76 76 76 76 75 75 74 74
63 61 59 56 55 55 53 53 51 52 51 49 50 56 58 57 57 57 58 58 59 59 59 61 62 61 59 60 66 67 67 67 68 69 69 69 69 69 70 70 70 70 71 72 71 72 73 75 73 73 74 76 77 77 77 77 77 78 77 77 77 77 77 77 77 76 76 76 76 76 76 76 76 76 76 75 75 76 76 75 76 76 76 76 76 75 75 76 76 76 76 76 76 75 75 75 75
63 62 60 55 57 55 54 52 52 50 46 48 51 57 58 57 57 58 59 58 59 57 60 62 62 62 61 63 65 65 66 68 68 69 69 70 69 69 69 70 70 70 71 72 72 73 73 74 72 72 74 75 75 77 77 77 77 77 77 77 77 77 77 77 77 76 76 75 75 75 76 76 75 76 75 75 75 76 76 75 75 75 75 75 76 76 76 75 75 75 75 75 75 75 75 75 76
64 64 60 57 55 55 53 50 47 48 45 47 52 56 57 58 59 59 58 58 59 61 62 63 62 58 59 61 62 64 66 68 68 69 69 69 69 70 70 70 70 70 71 71 71 72 72 73 72 74 74 74 74 75 76 77 77 77 77 77 77 77 77 77 77 77 76 75 75 75 75 75 75 75 75 75 75 75 75 75 75 75 75 75 75 75 75 75 75 75 75 75 76 76 76 76 76
64 63 60 56 54 52 50 50 50 47 44 48 55 57 57 59 59 58 58 59 61 62 62 60 63 57 61 61 62 63 66 67 68 69 69 70 70 70 70 70 70 70 71 72 71 72 72 72 74 74 74 74 74 73 75 75 77 77 77 77 77 77 76 77 77 77 76 75 74 75 76 75 75 74 75 74 75 75 75 75 75 75 76 76 75 75 75 75 75 74 75 75 75 75 76 76 76
65 65 59 58 54 53 50 49 47 39 40 48 56 57 56 58 60 60 61 61 60 61 60 61 61 62 60 62 64 65 67 68 69 68 68 69 69 69 70 70 70 70 71 72 72 72 72 73 74 74 74 74 74 74 74 75 75 77 77 77 77 77 76 76 76 76 76 76 75 75 75 75 76 75 75 73 75 75 75 74 74 74 75 76 75 75 75 74 74 74 74 75 75 76 76 76 76
64 62 58 55 55 53 52 49 45 45 45 52 56 56 57 58 59 60 60 60 60 61 60 61 63 62 63 65 66 66 67 67 67 67 68 68 69 68 69 69 70 69 70 70 72 72 73 73 74 74 74 74 75 74 75 75 75 76 75 76 77 77 76 76 76 76 75 75 75 75 75 75 74 76 75 75 74 75 74 75 74 74 75 75 76 75 74 74 73 74 75 75 76 75 75 75 75
62 59 58 54 56 55 56 52 51 50 49 51 55 57 56 57 59 60 57 59 59 59 59 61 63 64 65 66 66 65 67 67 67 67 67 67 67 68 67 68 68 69 70 70 71 72 73 73 73 73 74 75 74 75 74 75 75 75 75 75 75 76 75 76 76 76 75 75 76 75 75 74 75 76 76 75 74 74 74 75 75 74 75 76 76 76 76 76 76 76 76 75 75 75 74 74 74
62 59 56 57 57 56 55 54 54 54 53 51 55 57 57 59 58 60 57 58 59 57 58 61 61 63 64 65 65 65 66 67 67 66 66 67 67 67 67 67 67 69 69 70 70 72 72 72 73 74 74 75 74 74 74 74 74 75 74 75 75 75 76 76 76 76 75 76 75 76 74 75 76 76 75 76 75 77 76 75 76 74 75 76 77 75 75 76 76 76 76 75 71 71 72 70 71
62 60 56 56 56 56 55 55 54 50 50 50 54 57 56 59 59 58 58 58 58 57 58 60 61 63 64 65 65 66 66 66 66 66 65 66 66 66 67 68 67 68 69 70 71 71 72 72 73 73 74 75 74 74 74 73 74 74 74 74 75 74 75 75 75 75 75 76 75 75 74 74 74 74 74 74 73 75 75 76 76 76 76 77 77 76 75 74 72 72 71 71 72 72 71 72 72
62 59 60 57 56 56 56 55 55 53 55 55 56 56 55 59 59 58 58 55 55 57 58 60 62 64 64 65 65 65 65 65 65 65 65 66 66 67 66 68 68 68 69 69 69 71 72 72 72 73 74 74 74 74 73 73 74 73 74 74 74 75 75 75 75 75 74 75 75 73 74 74 74 73 74 74 74 75 74 74 75 76 76 77 78 76 75 75 74 72 73 72 73 73 71 73 72
56 58 60 61 60 58 58 55 55 55 53 54 55 56 59 58 58 58 58 54 55 58 59 60 64 65 65 65 65 64 65 65 65 65 65 65 66 66 66 67 67 67 69 69 69 70 71 72 73 72 72 74 74 74 74 73 74 73 74 74 74 74 74 74 74 74 74 75 75 75 73 72 72 72 73 74 74 75 74 74 75 76 76 76 77 76 75 76 74 73 72 74 73 72 70 72 72
59 55 56 56 58 57 57 56 55 54 53 51 53 58 57 58 56 59 58 56 58 59 59 61 65 65 66 65 65 64 64 64 65 65 65 65 65 66 66 67 67 68 69 68 69 70 71 71 73 73 72 73 74 74 74 74 74 73 73 75 75 74 74 73 73 74 75 75 76 75 75 73 72 71 72 73 73 74 74 75 76 75 75 74 76 76 74 73 73 73 74 74 72 72 69 71 70
58 58 58 58 57 57 56 56 56 54 52 51 55 56 56 57 56 58 58 58 58 59 61 64 66 66 65 65 64 64 64 64 64 65 65 66 66 66 66 67 67 68 68 68 69 69 70 71 72 72 72 73 73 73 73 73 73 74 73 73 74 74 74 73 73 75 74 74 75 76 76 73 72 72 72 72 73 74 74 75 76 74 75 74 76 74 74 73 72 72 73 73 73 72 71 71 71
58 59 59 58 57 56 55 55 54 53 51 51 53 54 55 57 58 57 58 58 59 60 62 64 65 65 64 64 64 64 64 64 64 65 65 65 66 66 66 66 67 67 68 68 68 69 70 71 71 71 72 73 73 71 73 73 73 73 74 74 74 75 74 74 75 73 73 74 73 75 75 74 72 71 72 73 73 73 74 75 76 75 74 77 75 74 73 73 71 71 72 73 72 71 71 72 71
56 57 58 56 55 53 51 50 50 51 51 50 50 51 53 57 56 52 57 58 59 61 63 64 65 64 64 64 64 64 64 64 64 65 65 66 66 66 66 66 66 67 68 68 68 69 70 71 71 72 72 74 73 71 73 73 74 73 74 74 74 74 74 75 74 73 73 73 74 76 76 77 75 73 73 74 73 74 75 75 75 75 74 74 75 74 75 74 73 72 73 72 72 72 72 71 71
55 53 50 48 46 46 46 44 42 44 45 48 49 48 51 57 56 52 57 58 59 60 62 63 64 65 64 64 64 65 64 65 64 65 65 65 66 66 66 66 66 67 67 68 68 70 70 70 70 71 72 73 73 72 73 73 73 73 74 74 74 74 75 74 74 73 74 74 76 76 77 76 76 75 76 75 75 75 74 74 75 75 74 75 75 74 73 74 74 73 75 75 75 73 72 72 72
51 49 43 41 42 40 37 32 31 41 38 46 49 46 50 54 53 55 57 59 59 60 62 63 63 64 65 65 64 64 64 64 64 65 65 66 66 66 65 67 66 67 67 67 68 69 68 70 71 72 72 73 73 72 72 73 73 73 74 74 74 74 74 74 73 73 74 75 77 76 77 77 77 76 76 76 75 75 74 76 74 75 75 76 75 76 75 75 75 74 75 75 74 73 72 72 71
45 44 41 39 36 34 37 32 29 37 36 44 48 39 42 49 52 54 58 58 59 60 61 62 63 64 64 65 64 65 65 64 63 65 66 66 66 66 66 66 67 67 68 68 68 68 69 69 70 71 71 72 73 72 73 72 73 73 73 73 74 74 73 73 73 74 75 75 76 77 76 77 76 76 76 76 75 74 75 75 75 75 76 76 76 76 74 74 73 74 73 73 73 72 71 71 68
34 35 32 33 33 35 27 27 32 31 38 45 45 33 31 45 49 55 58 59 59 59 60 61 62 63 64 64 65 65 64 65 64 65 66 66 66 66 67 67 68 68 69 68 68 70 70 70 70 70 72 72 73 73 72 73 73 72 72 72 73 74 73 73 72 74 75 74 75 75 76 76 77 77 77 76 75 75 74 74 75 75 76 76 74 75 75 74 74 74 73 72 73 71 70 70 68
26 33 33 34 33 34 30 30 28 29 38 45 43 35 32 37 45 55 58 58 58 58 60 61 62 62 63 64 64 64 65 65 65 65 66 66 66 67 67 68 68 68 69 70 70 70 70 71 72 70 71 72 72 73 73 73 73 73 73 73 73 74 73 73 73 73 73 74 74 74 76 76 76 77 76 77 75 75 73 73 74 76 77 76 75 75 75 73 74 74 74 73 72 71 71 69 67
19 23 31 33 29 30 32 23 24 25 36 43 40 31 33 34 39 54 57 58 58 58 60 61 61 62 62 63 64 64 64 65 66 65 67 67 67 67 67 67 67 68 69 70 70 71 71 71 72 71 70 71 72 72 73 73 73 73 74 73 73 74 73 73 74 73 73 73 73 72 75 76 76 76 77 77 76 75 74 75 74 76 76 75 76 76 75 74 74 72 75 75 73 72 69 67 66
17 21 26 30 32 32 31 28 25 28 27 34 41 36 34 38 42 54 57 58 58 58 60 61 61 62 63 63 63 64 64 65 65 66 66 67 68 68 68 69 68 68 69 69 70 70 70 71 71 72 71 71 72 72 73 73 73 73 73 73 74 74 73 72 72 73 73 71 73 73 75 76 76 76 77 77 76 76 75 75 74 76 76 76 76 76 75 74 75 74 75 75 73 73 69 68 66
14 20 24 28 28 26 30 27 23 22 28 24 29 36 35 35 48 53 56 57 57 58 59 60 61 61 63 63 63 64 64 64 65 66 66 68 68 68 68 69 68 68 68 69 69 71 71 71 71 72 72 72 72 73 73 73 73 73 73 74 74 74 74 73 72 73 72 73 71 74 76 75 76 76 76 77 77 75 75 76 76 77 76 76 76 75 74 75 74 74 74 74 75 73 71 68 66
12 15 20 28 31 33 31 30 23 23 22 22 23 26 25 27 48 52 56 57 57 57 59 60 61 61 63 63 63 63 64 64 65 66 66 67 68 68 68 69 68 68 68 69 70 70 71 71 72 72 73 72 73 73 72 72 72 71 71 72 72 73 73 73 74 72 72 73 73 74 75 76 76 77 77 77 77 77 76 75 76 76 76 76 76 74 73 73 75 75 74 73 73 72 71 69 66
27 21 22 24 29 33 31 23 22 21 23 24 23 26 26 28 39 51 55 57 57 58 59 60 61 61 62 62 63 63 64 64 66 66 67 67 67 68 68 69 69 69 69 69 69 70 70 70 71 72 72 72 73 72 72 71 71 71 71 71 70 71 72 73 73 73 72 71 73 74 75 75 76 76 77 77 77 77 76 76 76 76 76 76 76 75 74 72 75 75 74 74 71 70 69 68 67
24 26 26 26 25 26 27 27 24 23 23 25 26 24 25 25 30 47 55 57 56 56 58 60 60 61 62 62 63 63 64 65 65 66 67 67 67 68 68 68 69 68 70 70 69 69 70 70 70 71 72 72 72 72 72 72 73 72 71 71 70 70 72 72 72 73 73 73 75 75 76 75 76 76 76 77 77 77 77 76 76 76 76 76 76 76 75 75 75 74 73 72 71 69 68 65 65
18 19 21 25 28 28 28 30 28 25 23 25 24 23 24 27 30 48 55 56 57 56 57 58 60 61 62 62 63 63 64 65 65 65 66 66 67 67 68 68 68 68 69 69 70 70 70 70 71 72 72 72 72 72 73 73 73 73 72 71 71 71 73 73 72 73 74 73 74 75 75 76 76 76 77 77 77 77 77 76 76 76 76 76 76 75 75 75 75 74 73 70 69 69 68 67 69
16 15 16 16 18 24 29 22 24 23 21 22 25 22 23 29 47 47 54 55 57 57 57 58 60 61 61 61 62 63 63 64 65 65 65 66 67 67 68 68 68 68 69 69 69 70 70 71 71 72 72 72 72 72 73 73 74 74 74 73 73 72 73 74 74 74 74 74 73 74 75 76 76 75 76 76 77 77 77 77 76 76 76 76 76 75 74 74 75 74 73 71 70 68 65 65 67
25 21 17 14 17 20 24 27 23 23 23 22 23 25 25 30 30 47 54 56 57 57 58 59 60 61 61 62 62 63 63 65 65 65 65 65 66 67 68 68 68 68 68 69 69 69 69 70 71 72 72 72 73 73 73 73 74 74 74 74 74 74 74 74 73 73 73 74 73 74 74 75 76 75 76 76 76 77 77 77 77 76 76 76 76 75 74 73 74 73 73 72 71 68 65 63 69
25 26 24 20 22 23 23 23 25 27 27 24 23 25 28 37 37 37 53 55 56 57 58 58 59 60 61 61 62 63 63 64 65 65 65 65 66 67 68 68 68 68 69 69 69 69 70 71 72 72 72 73 73 73 73 73 73 72 72 72 71 71 71 71 71 72 72 72 71 71 74 74 74 75 76 76 76 76 77 77 77 77 76 76 76 74 74 74 74 73 74 72 71 70 68 63 63
22 22 25 24 25 24 25 26 27 29 28 27 24 25 25 37 33 41 51 54 55 57 57 57 58 60 60 60 61 61 62 63 64 65 65 65 66 67 67 68 68 68 68 69 69 70 71 71 72 72 72 73 73 74 74 74 73 73 73 72 71 71 71 71 73 73 72 73 73 73 74 74 75 75 75 76 76 77 77 77 77 77 76 76 76 76 75 74 72 73 73 72 71 70 68 64 64
21 26 25 24 25 25 25 25 28 30 30 27 26 25 25 26 27 38 48 52 54 56 57 57 57 59 59 60 60 61 61 62 63 64 65 66 66 66 67 68 68 67 68 69 69 70 71 72 72 72 72 72 73 74 74 74 73 73 73 73 72 72 71 72 73 74 74 74 73 74 74 74 76 76 75 76 77 77 77 77 77 77 76 75 75 75 74 73 73 74 74 73 74 72 69 66 64
23 25 25 25 25 26 27 29 29 26 23 23 23 24 25 25 34 44 47 48 53 54 56 57 57 58 59 59 60 61 61 62 63 63 64 65 66 66 67 67 67 68 68 68 69 70 71 72 72 73 73 73 73 74 74 74 74 73 73 73 72 72 72 72 73 73 73 74 73 74 75 74 76 76 76 76 77 76 77 77 77 77 76 76 76 75 74 74 74 74 74 73 73 72 70 69 67
24 23 25 24 24 23 22 23 24 25 25 24 26 22 23 24 27 31 49 42 45 50 54 55 57 58 58 58 60 60 61 63 63 63 64 65 65 66 66 67 67 67 68 69 69 70 70 71 72 73 73 73 73 74 74 74 74 74 73 73 73 73 73 73 72 73 73 74 73 74 74 75 74 75 76 76 77 77 77 77 77 76 76 75 75 75 75 75 74 74 74 73 73 72 71 70 68
23 23 22 21 22 23 27 25 26 27 24 24 22 22 20 21 25 27 40 42 43 44 52 55 57 57 58 59 59 59 60 61 62 63 64 65 65 66 66 67 68 68 68 68 69 69 69 70 72 72 72 72 73 73 74 74 74 74 73 73 73 73 73 73 73 73 73 74 73 73 74 74 74 74 74 76 76 76 77 77 76 76 76 76 76 76 75 74 73 74 73 74 74 73 71 70 69
22 21 19 20 25 25 27 26 30 24 22 27 22 20 20 20 25 27 34 43 41 42 43 51 54 56 57 58 58 59 60 61 62 62 63 64 65 66 66 66 67 68 68 68 68 69 69 70 71 72 72 73 73 73 73 73 73 73 74 73 73 73 73 72 72 72 73 73 73 73 74 74 75 74 75 74 75 74 76 76 76 76 76 76 76 76 75 75 73 73 74 74 74 73 72 71 69
20 19 21 20 24 22 20 25 22 22 22 23 20 18 21 21 31 28 32 34 39 42 37 44 50 53 56 57 58 58 59 60 61 62 63 63 64 65 65 66 68 68 68 69 68 67 69 70 71 71 72 73 73 72 73 73 73 73 73 73 73 73 73 73 73 73 73 73 73 73 74 73 74 74 75 74 75 75 76 77 77 76 76 76 76 76 76 76 75 74 74 73 73 73 72 71 70
20 19 20 20 19 17 16 19 23 21 22 20 18 24 19 23 24 29 25 32 36 40 44 43 48 52 56 57 58 57 58 59 60 61 62 63 64 64 65 66 67 67 68 67 68 68 69 69 71 71 72 72 73 73 72 73 73 73 74 73 73 73 73 73 73 72 73 73 73 73 72 72 73 73 73 75 74 75 75 76 77 77 77 77 77 77 76 76 76 75 74 74 73 73 72 72 71
20 20 19 21 20 17 16 16 15 13 16 20 24 18 19 19 20 29 25 28 36 38 41 46 49 51 55 55 57 57 58 59 60 61 61 62 64 65 64 65 66 66 66 66 67 68 69 70 70 71 71 72 72 72 72 72 72 73 73 73 73 73 73 72 72 72 73 73 72 73 73 73 72 73 74 75 76 76 76 76 77 77 77 77 77 77 76 76 76 75 75 74 74 73 73 71 70
20 20 20 20 21 23 12 19 16 16 14 19 24 18 27 20 38 37 38 32 33 40 42 45 47 49 50 52 54 55 56 57 59 60 61 62 64 65 64 65 65 66 67 66 67 68 69 69 70 71 71 72 72 72 72 72 72 73 73 73 73 73 73 73 73 73 73 73 73 73 74 74 73 74 75 76 75 76 76 76 77 76 77 76 77 77 76 76 76 75 74 74 74 73 72 72 71
19 19 19 19 20 18 19 24 24 20 18 17 28 23 23 27 25 23 31 31 31 34 38 40 43 44 50 50 51 53 55 57 58 58 59 62 63 64 64 64 64 65 65 66 67 69 69 69 69 70 71 71 72 72 72 72 72 73 73 73 73 73 73 72 72 72 71 73 73 73 73 73 74 74 74 75 75 76 76 76 76 75 76 76 76 77 76 76 76 75 74 74 74 71 72 72 71
18 18 18 19 20 18 21 12 26 16 11 21 14 13 17 18 15 38 27 31 28 31 34 36 43 45 47 46 50 52 53 56 58 60 61 62 62 63 62 62 63 63 64 65 68 68 69 69 69 69 70 71 71 71 71 71 72 72 73 73 73 73 72 72 72 72 72 73 73 73 73 73 73 73 73 74 74 75 75 76 76 76 76 76 76 76 76 76 75 74 74 74 73 73 72 72 72
18 17 19 17 19 20 25 23 15 13 13 14 18 17 14 19 19 29 31 30 31 35 37 37 40 43 44 45 48 51 53 54 57 58 60 60 61 61 63 61 61 63 65 66 67 66 67 68 68 67 69 69 70 69 70 71 72 71 72 72 72 72 72 72 72 73 73 73 72 72 72 72 73 74 74 75 75 74 75 75 76 76 76 76 76 76 76 76 75 74 74 73 73 73 72 71 72
16 18 17 20 20 21 25 21 25 21 14 16 12 18 11 22 17 18 22 35 36 34 38 37 37 41 45 46 45 48 52 53 55 56 57 59 59 60 60 60 60 62 63 64 64 64 64 65 67 67 67 69 70 70 70 71 71 70 71 72 73 73 73 73 73 73 72 72 72 72 72 71 73 73 73 74 74 74 74 74 74 74 74 75 75 75 75 75 75 74 73 72 72 72 71 71 70
15 16 16 17 17 20 20 21 17 16 19 18 16 11 16 27 21 19 20 31 39 38 40 45 42 41 41 45 47 48 51 52 53 54 56 57 58 58 59 60 60 61 62 62 62 62 63 63 65 66 67 67 68 68 69 71 70 71 72 72 72 72 72 72 72 73 73 72 73 73 72 72 73 73 73 73 74 74 75 74 74 74 74 75 76 75 75 75 74 74 73 73 72 72 71 71 71
17 16 16 15 16 18 17 18 17 15 16 20 14 12 23 20 30 26 21 25 32 41 41 43 42 41 46 45 47 51 51 53 53 53 53 55 58 58 58 60 61 60 60 61 61 61 62 63 63 64 65 66 66 67 70 70 70 70 71 71 71 71 71 72 71 72 72 72 72 73 73 73 73 74 74 73 74 74 74 74 74 75 75 75 76 76 74 74 74 74 73 72 72 71 71 70 70